Jackson, TN

1:54 PM CST on November 12, 2019 (GMT -0600)
McKellar-Sipes Regional

Weather History for KMKL - September, 2019

Change the Weather History Date:

Wednesday, September 11, 2019

  Actual Average Record
Temperature  
Mean Temperature 80 °F 73 °F  
Max Temperature 96 °F 86 °F 99 °F (1983)
Min Temperature 66 °F 61 °F 44 °F (1976)
Degree Days  
Heating Degree Days 0 0  
Month to date heating degree days 0  
Since 1 July heating degree days 0  
Cooling Degree Days 16 9  
Month to date cooling degree days 110  
Year to date cooling degree days 1533  
Growing Degree Days 30 (Base 50)    
Moisture  
Dew Point 69 °F    
Average Humidity 83    
Maximum Humidity 100    
Minimum Humidity 43    
Precipitation  
Precipitation 0.00 in 0.11 in 2.46 in (2014)
Month to date precipitation 1.06  
Year to date precipitation 36.93  
Sea Level Pressure  
Sea Level Pressure 30.17 in    
Wind  
Wind Speed 2 mph ()    
Max Wind Speed 9 mph    
Max Gust Speed 18 mph    
Visibility 6.2 miles    
Events Fog    
T = Trace of Precipitation, MM = Missing Value Source: Averaged Metar Reports

Daily Weather History Graph

Daily Weather History Graph

Search for Another Location

Airport or City:

Astronomy

Sep. 11, 2019 Rise Set
Actual Time 6:35 AM CDT 7:08 PM CDT
Civil Twilight 6:09 AM CDT 7:34 PM CDT
Nautical Twilight 5:39 AM CDT 8:04 PM CDT
Astronomical Twilight 5:08 AM CDT 8:35 PM CDT
Moon 6:14 PM CDT (9/11) 4:05 AM CDT (9/11)
Length of Visible Light 13h 25m
Length of Day
12h 33m
Waxing Gibbous, 95% of the Moon is Illuminated
Sep 11
Waxing Gibbous
Sep 13
Full
Sep 21
Last Quarter
Sep 28
New
Oct 5
First Quarter

Hourly Weather History & Observations

Time (CDT) Temp. Heat Index Dew Point Humidity Pressure Visibility Wind Dir Wind Speed Gust Speed Precip Events Conditions
12:50 AM 69.8 °F - 68.0 °F 94% 30.17 in 3.0 mi Calm Calm - N/A   Clear
12:53 AM 69.1 °F - 68.0 °F 96% 30.16 in 5.0 mi Calm Calm - N/A   Clear
1:53 AM 70.0 °F - 69.1 °F 97% 30.17 in 8.0 mi Calm Calm - N/A   Clear
2:53 AM 68.0 °F - 66.0 °F 93% 30.16 in 5.0 mi East 3.5 mph - N/A   Clear
3:46 AM 66.9 °F - 66.0 °F 97% 30.19 in 1.8 mi Calm Calm - N/A   Clear
3:48 AM 66.2 °F - 66.2 °F 100% 30.19 in 0.8 mi Calm Calm - N/A   Mist
3:53 AM 66.9 °F - 66.0 °F 97% 30.17 in 0.5 mi East 3.5 mph - N/A Fog Fog
4:02 AM 66.9 °F - 66.9 °F 100% 30.19 in 3.0 mi Calm Calm - N/A   Partly Cloudy
4:13 AM 68.0 °F - 68.0 °F 100% 30.19 in 1.5 mi Calm Calm - N/A   Partly Cloudy
4:23 AM 68.0 °F - 68.0 °F 100% 30.19 in 0.5 mi Calm Calm - N/A Fog Fog
4:28 AM 66.9 °F - 66.0 °F 97% 30.19 in 0.2 mi Calm Calm - N/A Fog Fog
4:48 AM 66.2 °F - 66.2 °F 100% 30.19 in 1.0 mi East 3.5 mph - N/A   Mist
4:49 AM 66.2 °F - 66.2 °F 100% 30.19 in 1.2 mi East 3.5 mph - N/A   Partly Cloudy
4:53 AM 66.0 °F - 66.0 °F 100% 30.18 in 3.0 mi East 3.5 mph - N/A   Partly Cloudy
5:22 AM 66.0 °F - 66.0 °F 100% 30.20 in 1.8 mi Calm Calm - N/A   Clear
5:32 AM 66.0 °F - 66.0 °F 100% 30.20 in 3.0 mi ESE 3.5 mph - N/A   Clear
5:53 AM 66.9 °F - 66.0 °F 97% 30.19 in 6.0 mi Calm Calm - N/A   Clear
6:35 AM 66.9 °F - 66.0 °F 97% 30.22 in 0.8 mi Calm Calm - N/A   Clear
6:53 AM 66.0 °F - 64.9 °F 96% 30.21 in 10.0 mi Calm Calm - N/A   Clear
7:53 AM 72.0 °F - 70.0 °F 93% 30.23 in 8.0 mi Calm Calm - N/A   Clear
8:53 AM 80.1 °F 83.8 °F 72.0 °F 76% 30.23 in 10.0 mi South 3.5 mph - N/A   Clear
9:53 AM 84.9 °F 90.7 °F 72.0 °F 65% 30.23 in 10.0 mi SSE 6.9 mph - N/A   Partly Cloudy
10:53 AM 88.0 °F 95.6 °F 73.0 °F 61% 30.23 in 10.0 mi Variable 4.6 mph - N/A   Partly Cloudy
11:53 AM 91.0 °F 100.4 °F 73.9 °F 57% 30.21 in 10.0 mi South 8.1 mph - N/A   Partly Cloudy
12:53 PM 91.9 °F 100.7 °F 73.0 °F 54% 30.20 in 10.0 mi SW 9.2 mph - N/A   Mostly Cloudy
1:53 PM 93.9 °F 100.8 °F 71.1 °F 47% 30.18 in 10.0 mi SSW 6.9 mph - N/A   Partly Cloudy
2:53 PM 95.0 °F 100.7 °F 69.1 °F 43% 30.14 in 10.0 mi SW 9.2 mph 18.4 mph N/A   Partly Cloudy
3:53 PM 93.9 °F 98.6 °F 68.0 °F 43% 30.12 in 10.0 mi SSW 8.1 mph - N/A   Partly Cloudy
4:53 PM 93.9 °F 98.6 °F 68.0 °F 43% 30.11 in 10.0 mi WSW 9.2 mph - N/A   Clear
5:53 PM 91.0 °F 97.6 °F 71.1 °F 52% 30.10 in 10.0 mi South 3.5 mph - N/A   Clear
6:53 PM 84.0 °F 90.2 °F 73.0 °F 69% 30.11 in 10.0 mi SSE 3.5 mph - N/A   Clear
7:53 PM 78.1 °F - 73.9 °F 87% 30.11 in 10.0 mi South 3.5 mph - N/A   Clear
8:53 PM 75.9 °F - 73.0 °F 91% 30.11 in 10.0 mi Calm Calm - N/A   Clear
9:53 PM 75.9 °F - 73.0 °F 91% 30.12 in 10.0 mi South 4.6 mph - N/A   Clear
10:53 PM 78.1 °F - 72.0 °F 81% 30.12 in 10.0 mi South 5.8 mph - N/A   Clear
11:53 PM 77.0 °F - 71.1 °F 82% 30.11 in 10.0 mi South 4.6 mph - N/A   Clear